Date,TemperatureHighF,TemperatureAvgF,TemperatureLowF,DewpointHighF,DewpointAvgF,DewpointLowF,HumidityHigh,HumidityAvg,HumidityLow,PressureMaxIn,PressureMinIn,WindSpeedMaxMPH,WindSpeedAvgMPH,GustSpeedMaxMPH,PrecipitationSumIn
2013-1-1,39,32,28,30,28,26,92,85,63,30.36,30.25,0,0,0,0.00
2013-1-2,40,32,24,28,25,22,91,75,57,30.22,30.10,0,0,0,0.02
2013-1-3,38,30,22,29,24,19,90,80,64,30.11,30.06,0,0,0,0.01
2013-1-4,52,44,38,44,40,36,93,86,69,30.24,30.09,0,0,0,0.01
2013-1-5,38,36,33,36,34,31,94,92,88,30.13,30.07,0,0,0,0.09
2013-1-6,47,42,37,41,38,35,94,87,71,30.16,30.03,0,0,0,0.09
2013-1-7,51,48,44,48,44,40,90,88,84,30.15,29.98,0,0,0,0.18
2013-1-8,54,51,47,47,46,44,90,84,75,30.15,29.88,0,0,0,0.02
2013-1-9,50,43,35,45,38,32,90,85,73,29.91,29.67,0,0,0,0.45
2013-1-10,39,36,34,36,34,32,91,90,85,30.03,29.91,0,0,0,0.11
2013-1-11,37,32,29,32,29,26,93,88,67,30.22,30.03,0,0,0,0.07
2013-1-12,35,29,26,29,25,23,92,86,75,30.30,30.20,0,0,0,0.01
2013-1-13,28,26,25,25,23,21,92,87,81,30.40,30.30,0,0,0,0.00
2013-1-14,35,30,26,31,26,23,90,85,78,30.48,30.40,0,0,0,0.00
2013-1-15,38,35,33,35,32,30,92,89,85,30.56,30.46,0,0,0,0.00
2013-1-16,34,33,31,32,31,29,93,92,91,30.55,30.40,0,0,0,0.00
2013-1-17,33,32,30,31,30,28,93,93,92,30.40,30.23,0,0,0,0.01
2013-1-18,32,30,28,30,28,26,94,93,93,30.24,30.19,0,0,0,0.01
2013-1-19,31,28,25,29,26,23,94,93,92,30.26,30.19,0,0,0,0.01
2013-1-20,29,27,24,27,25,22,94,93,91,30.27,30.16,0,0,0,0.01
2013-1-21,30,27,23,28,25,21,93,92,91,30.19,30.07,0,0,0,0.00
2013-1-22,32,28,23,30,26,21,94,93,90,30.07,29.85,0,0,0,0.00
2013-1-23,35,33,30,33,31,28,94,94,94,30.10,29.82,0,0,0,0.29
2013-1-24,45,36,32,44,34,30,95,94,94,30.13,30.03,0,0,0,0.22
2013-1-25,50,46,40,49,45,38,95,95,94,30.06,29.90,0,0,0,0.68
2013-1-26,45,40,36,40,37,33,94,88,76,30.02,29.88,0,0,0,0.23
2013-1-27,42,39,37,40,36,35,93,91,85,30.09,29.99,0,0,0,0.32
2013-1-28,43,40,37,41,38,35,93,92,90,30.16,30.02,0,0,0,0.74
2013-1-29,45,44,42,43,42,40,93,92,91,30.42,30.16,0,0,0,0.71
2013-1-30,48,44,42,45,42,40,93,91,87,30.43,30.38,0,0,0,0.10
2013-1-31,53,48,43,46,43,41,93,84,64,30.35,30.27,0,0,0,0.13
2013-2-1,54,45,39,45,40,36,90,83,69,30.27,30.16,0,0,0,0.01
2013-2-2,44,38,32,42,36,30,94,92,90,30.24,30.18,0,0,0,0.01
2013-2-3,48,43,36,43,39,34,93,88,79,30.26,30.16,0,0,0,0.01
2013-2-4,51,46,42,42,40,36,90,81,69,30.16,29.87,0,0,0,0.01
2013-2-5,50,46,44,43,41,38,90,80,71,29.99,29.87,0,0,0,0.25
2013-2-6,52,47,42,40,39,36,87,75,57,30.04,29.78,0,0,0,0.09
2013-2-7,47,41,34,39,36,31,90,83,59,30.03,29.87,0,0,0,0.21
2013-2-8,44,36,31,36,32,29,93,85,66,30.20,30.03,0,0,0,0.04
2013-2-9,44,40,36,39,36,33,92,87,76,30.23,30.18,0,0,0,0.05
2013-2-10,44,42,39,40,38,35,93,86,72,30.26,30.21,0,0,0,0.05
2013-2-11,46,43,40,41,37,35,92,81,70,30.32,30.23,0,0,0,0.03
2013-2-12,52,47,43,47,43,41,93,88,75,30.42,30.31,0,0,0,0.07
2013-2-13,51,48,46,45,44,40,90,85,75,30.43,30.37,0,0,0,0.01
2013-2-14,56,47,39,45,41,37,92,81,58,30.48,30.38,0,0,0,0.00
2013-2-15,57,43,36,45,39,33,93,85,62,30.39,30.14,0,0,0,0.00
2013-2-16,47,41,34,45,38,32,94,90,82,30.22,30.14,0,0,0,0.14
2013-2-17,45,40,35,38,33,27,92,78,50,30.21,30.01,0,0,0,0.02
2013-2-18,46,40,33,36,33,30,91,77,60,30.01,29.67,0,0,0,0.00
2013-2-19,50,42,38,38,36,34,88,79,58,29.91,29.58,0,0,0,0.10
2013-2-20,47,41,37,39,36,34,91,83,61,30.02,29.91,0,0,0,0.23
2013-2-21,43,41,38,38,37,35,90,85,80,30.15,30.02,0,0,0,0.25
2013-2-22,45,43,38,41,38,34,89,84,72,30.12,29.86,0,0,0,0.55
2013-2-23,44,39,34,38,35,31,90,85,75,30.37,30.02,0,0,0,0.10
2013-2-24,50,41,33,37,34,30,92,77,54,30.37,30.02,0,0,0,0.01
2013-2-25,48,42,37,39,36,31,89,79,52,30.31,29.98,0,0,0,0.13
2013-2-26,50,41,34,37,33,30,91,74,52,30.32,30.17,0,0,0,0.01
2013-2-27,51,45,40,42,38,34,85,76,63,30.23,30.14,0,0,0,0.02
2013-2-28,56,52,46,51,48,42,89,86,81,30.39,30.13,0,0,0,0.08
2013-3-1,62,54,49,50,48,45,90,80,61,30.39,30.24,0,0,0,0.03
2013-3-2,53,49,43,48,44,39,88,83,75,30.25,30.11,0,0,0,0.05
2013-3-3,49,42,34,39,32,27,89,70,43,30.24,30.13,0,0,0,0.05
2013-3-4,54,40,28,36,30,24,88,71,42,30.14,29.82,0,0,0,0.00
2013-3-5,50,43,39,42,38,31,92,82,69,29.83,29.53,0,0,0,0.18
2013-3-6,46,42,40,41,38,37,93,87,76,29.88,29.46,0,0,0,0.48
2013-3-7,55,45,36,38,36,33,91,72,48,29.96,29.88,0,0,0,0.01
2013-3-8,56,43,33,40,36,30,92,77,50,30.12,29.93,0,0,0,0.00
2013-3-9,58,45,34,40,34,29,88,68,33,30.42,30.12,0,0,0,0.00
2013-3-10,54,46,40,45,38,32,87,73,56,30.42,30.32,0,0,0,0.00
2013-3-11,57,51,47,50,47,45,94,87,71,30.34,30.17,0,0,0,0.03
2013-3-12,60,52,47,49,46,44,91,82,62,30.18,30.09,0,0,0,0.01
2013-3-13,67,55,47,49,46,43,89,73,46,30.16,30.01,0,0,0,0.00
2013-3-14,58,53,48,49,45,40,85,74,51,30.15,29.98,0,0,0,0.00
2013-3-15,64,56,51,49,46,44,86,71,49,30.17,30.09,0,0,0,0.00
2013-3-16,51,47,41,46,43,37,89,86,81,30.12,29.95,0,0,0,0.29
2013-3-17,46,41,37,37,35,31,88,80,58,30.24,30.10,0,0,0,0.07
2013-3-18,53,42,33,37,33,31,93,72,47,30.23,30.03,0,0,0,0.01
2013-3-19,52,43,37,50,38,32,93,81,66,30.04,29.60,0,0,0,0.42
2013-3-20,54,48,40,49,42,34,91,80,67,30.11,29.51,0,0,0,0.79
2013-3-21,46,41,38,37,34,33,86,78,61,30.22,30.11,0,0,0,0.03
2013-3-22,45,40,32,37,33,28,93,78,52,30.31,30.25,0,0,0,0.12
2013-3-23,48,40,34,35,32,26,92,74,44,30.31,30.16,0,0,0,0.03
2013-3-24,53,43,35,39,35,31,87,73,52,30.17,29.99,0,0,0,0.00
2013-3-25,56,47,38,41,37,34,87,70,49,30.00,29.84,0,0,0,0.00
2013-3-26,53,48,45,46,43,41,91,83,68,29.95,29.88,0,0,0,0.05
2013-3-27,62,51,43,49,44,39,90,77,53,29.93,29.84,0,0,0,0.02
2013-3-28,65,55,48,51,46,42,91,76,45,30.07,29.93,0,0,0,0.07
2013-3-29,66,57,49,50,49,47,93,76,52,30.13,30.06,0,0,0,0.06
2013-3-30,74,59,44,52,47,-100,89,68,45,30.09,29.88,0,0,0,0.00
2013-3-31,73,59,47,52,47,42,85,66,44,29.96,29.85,0,0,0,0.00
2013-4-1,62,56,53,51,50,48,87,79,66,30.11,29.95,0,0,0,0.00
2013-4-2,68,57,50,49,47,45,88,72,46,30.15,30.05,0,0,0,0.00
2013-4-3,64,54,44,53,47,40,89,79,64,30.09,29.84,0,0,0,0.00
2013-4-4,60,56,53,54,51,46,89,81,69,29.84,29.63,0,0,0,0.12
2013-4-5,56,53,51,50,48,46,87,82,72,29.91,29.77,0,0,0,0.30
2013-4-6,55,51,46,48,45,43,90,82,65,29.95,29.66,0,0,0,0.62
2013-4-7,53,47,42,46,41,37,89,79,73,29.90,29.55,0,0,0,0.53
2013-4-8,52,45,40,43,40,37,92,81,64,30.21,29.90,0,0,0,0.06
2013-4-9,53,47,37,41,39,35,93,76,60,30.28,30.21,0,0,0,0.01
2013-4-10,59,53,44,46,40,38,82,62,56,30.27,30.17,0,0,0,0.01
2013-4-11,56,47,39,40,38,35,90,72,46,30.27,30.09,0,0,0,0.00
2013-4-12,54,45,36,44,39,33,91,79,62,30.09,29.81,0,0,0,0.11
2013-4-13,51,44,39,44,36,32,91,74,49,30.04,29.85,0,0,0,0.20
2013-4-14,48,42,40,39,37,35,91,82,66,30.03,29.86,0,0,0,0.34
2013-4-15,54,46,39,40,37,31,92,73,42,30.09,29.87,0,0,0,0.30
2013-4-16,58,47,39,42,39,33,93,74,38,30.31,30.09,0,0,0,0.03
2013-4-17,58,47,37,43,38,33,84,70,45,30.42,30.31,0,0,0,0.01
2013-4-18,61,52,44,46,41,38,86,68,47,30.40,30.27,0,0,0,0.00
2013-4-19,57,52,49,51,46,44,91,83,71,30.27,30.13,0,0,0,0.37
2013-4-20,59,52,46,45,43,40,90,73,52,30.27,30.18,0,0,0,0.01
2013-4-21,55,49,44,46,42,40,87,78,68,30.23,30.16,0,0,0,0.00
2013-4-22,66,53,37,42,36,26,90,57,26,30.31,30.21,0,0,0,0.00
2013-4-23,68,53,38,34,30,25,67,44,20,30.28,30.06,0,0,0,0.00
2013-4-24,74,57,41,40,34,29,69,44,23,30.14,29.93,0,0,0,0.00
2013-4-25,75,61,46,47,40,32,73,49,24,30.07,29.94,0,0,0,0.00
2013-4-26,78,64,49,51,44,35,75,51,22,30.17,30.07,0,0,0,0.00
2013-4-27,73,62,51,46,39,32,71,45,22,30.20,30.13,0,0,0,0.00
2013-4-28,65,57,50,47,44,41,82,65,45,30.22,30.06,0,0,0,0.00
2013-4-29,59,52,43,48,39,28,91,62,32,30.16,30.04,0,0,0,0.12
2013-4-30,56,46,34,35,32,29,87,63,37,30.34,30.15,0,0,0,0.01
2013-5-1,68,51,34,40,35,30,85,58,31,30.42,30.34,0,0,0,0.00
2013-5-2,77,61,42,41,36,33,71,44,21,30.35,30.15,0,0,0,0.00
2013-5-3,78,63,46,44,40,35,75,44,27,30.21,30.03,0,0,0,0.00
2013-5-4,81,67,47,48,37,28,81,40,15,30.04,29.80,0,0,0,0.00
2013-5-5,86,75,61,46,35,31,57,25,16,29.80,29.59,7,0,16,0.00
2013-5-6,79,64,49,53,47,43,82,56,31,29.86,29.70,8,2,12,0.00
2013-5-7,74,60,49,52,48,44,86,65,40,29.98,29.85,9,2,13,0.00
2013-5-8,67,56,46,52,48,43,88,75,58,30.08,29.98,9,2,12,0.00
2013-5-9,78,63,48,55,50,45,89,66,33,30.12,30.00,14,2,17,0.00
2013-5-10,80,66,53,57,49,-100,79,58,37,30.14,30.04,7,2,11,0.00
2013-5-11,83,67,55,58,52,-100,83,62,27,30.14,29.95,7,1,9,0.00
2013-5-12,72,64,58,58,55,51,87,74,56,30.07,30.01,6,2,13,0.00
2013-5-13,67,59,51,54,51,44,91,75,51,30.16,30.00,12,4,21,0.11
2013-5-14,66,56,46,46,40,32,87,60,28,30.16,30.03,10,2,13,0.00
2013-5-15,59,52,47,50,45,40,86,77,67,30.06,29.96,5,1,12,0.11
2013-5-16,60,51,51,53,34,-100,91,85,65,29.95,29.88,6,2,11,0.26
2013-5-17,62,54,47,49,42,-100,92,75,53,30.04,29.93,10,1,16,0.18
2013-5-18,57,54,51,51,48,44,88,79,68,30.21,30.04,6,2,12,0.08
2013-5-19,64,56,51,50,47,42,91,73,47,30.33,30.21,12,3,15,0.10
2013-5-20,71,56,42,49,43,34,89,66,37,30.26,29.86,8,2,11,0.01
2013-5-21,55,48,42,46,43,38,89,83,52,29.95,29.78,12,3,17,0.61
2013-5-22,48,44,40,45,40,36,89,86,82,29.94,29.89,12,6,19,0.28
2013-5-23,57,49,45,46,43,40,89,80,55,29.96,29.92,12,5,17,0.27
2013-5-24,58,52,47,47,45,43,91,78,59,30.02,29.92,10,4,18,0.42
2013-5-25,67,57,48,51,46,42,86,68,41,30.01,29.86,9,2,13,0.10
2013-5-26,62,56,52,51,49,45,91,76,58,29.98,29.89,12,4,19,0.33
2013-5-27,63,55,50,57,50,45,92,84,67,29.93,29.70,15,4,20,0.80
2013-5-28,63,57,52,50,47,43,87,72,49,29.88,29.71,13,4,20,0.16
2013-5-29,61,55,50,51,48,44,91,79,60,30.02,29.59,14,5,21,0.43
2013-5-30,62,54,49,47,45,43,85,71,51,30.18,30.01,6,3,15,0.02
2013-5-31,67,58,47,48,46,43,89,65,46,30.24,30.15,14,3,16,0.01
2013-6-1,74,62,48,54,49,43,88,65,36,30.17,29.95,12,2,14,0.00
2013-6-2,70,62,54,51,50,48,83,65,46,30.01,29.96,11,4,17,0.00
2013-6-3,73,61,48,52,48,44,87,66,39,30.03,29.95,14,4,19,0.00
2013-6-4,81,65,48,57,51,44,85,62,37,30.01,29.90,11,3,14,0.00
2013-6-5,82,70,56,58,52,44,87,58,27,30.01,29.90,12,3,14,0.00
2013-6-6,81,70,58,58,55,49,85,61,36,29.98,29.91,12,3,14,0.00
2013-6-7,81,67,53,58,49,38,83,57,25,30.06,29.98,8,2,15,0.00
2013-6-8,78,65,53,54,47,38,85,57,24,30.09,29.97,11,5,15,0.00
2013-6-9,72,62,53,50,47,44,76,59,37,30.02,29.90,16,7,21,0.00
2013-6-10,69,58,48,46,43,41,77,59,36,29.94,29.82,13,5,16,0.00
2013-6-11,62,57,53,46,44,41,73,62,49,30.09,29.92,10,3,13,0.00
2013-6-12,63,56,52,47,45,42,82,67,47,30.13,30.07,6,2,13,0.00
2013-6-13,59,54,49,52,49,45,91,84,70,30.24,30.12,12,3,16,0.54
2013-6-14,69,58,48,51,48,46,93,73,49,30.23,29.90,14,4,19,0.32
2013-6-15,77,63,49,54,50,44,90,65,31,29.96,29.85,7,1,13,0.01
2013-6-16,75,61,51,55,51,47,88,71,45,30.06,29.96,6,1,11,0.00
2013-6-17,76,62,52,54,50,46,87,65,37,30.06,29.89,11,2,18,0.01
2013-6-18,68,60,54,51,48,42,88,66,42,29.96,29.88,14,3,27,0.02
2013-6-19,63,56,50,53,49,46,91,80,59,30.04,29.90,11,2,20,0.23
2013-6-20,64,55,51,53,49,47,88,80,60,30.05,30.01,10,2,14,0.04
2013-6-21,71,69,67,48,47,44,50,44,38,30.09,30.04,6,3,11,0.05
2013-6-22,80,72,52,51,47,40,84,44,24,30.01,29.80,5,2,11,0.00
2013-6-23,72,64,58,61,56,51,92,78,54,29.81,29.59,13,1,14,0.65
2013-6-24,64,60,56,60,53,50,92,78,62,29.66,29.60,13,3,17,0.28
2013-6-25,65,61,58,59,56,54,90,84,67,29.80,29.62,9,1,15,0.36
2013-6-26,71,63,58,58,56,52,91,77,52,29.98,29.79,4,0,6,0.08
2013-6-27,81,71,62,62,58,56,82,66,45,30.08,29.95,11,2,13,0.01
2013-6-28,90,74,61,64,60,55,89,65,31,30.08,29.97,6,1,11,0.00
2013-6-29,87,74,61,62,57,53,85,58,34,30.04,29.90,8,2,12,0.00
2013-6-30,92,77,62,65,60,56,84,57,32,29.91,29.78,6,2,12,0.00
2013-7-1,90,77,64,67,62,59,85,62,43,29.93,29.85,6,1,10,0.00
2013-7-2,89,77,64,65,61,56,85,60,38,30.00,29.92,12,3,15,0.00
2013-7-3,84,73,62,56,50,37,66,47,19,30.05,29.95,13,5,18,0.00
2013-7-4,76,65,54,52,49,46,79,58,37,30.07,29.95,14,6,19,0.00
2013-7-5,73,64,56,53,49,47,75,60,43,30.00,29.87,14,5,18,0.00
2013-7-6,75,62,51,55,51,47,87,70,49,29.90,29.79,15,4,20,0.00
2013-7-7,78,66,54,57,54,50,87,66,46,29.91,29.80,11,3,15,0.00
2013-7-8,81,65,54,55,52,49,85,65,33,30.01,29.90,13,3,18,0.00
2013-7-9,88,73,55,60,55,50,86,58,27,30.01,29.90,12,3,16,0.00
2013-7-10,82,70,59,56,50,-100,77,53,34,29.98,29.84,10,4,16,0.00
2013-7-11,75,71,62,49,45,41,61,41,29,29.95,29.87,15,5,16,0.00
2013-7-12,75,63,49,50,46,41,85,57,29,30.01,29.91,13,3,14,0.00
2013-7-13,79,66,52,49,45,37,80,51,23,30.07,29.93,14,6,20,0.00
2013-7-14,86,71,53,52,48,39,84,48,22,30.01,29.87,15,4,18,0.00
2013-7-15,85,70,53,52,46,38,81,46,27,29.93,29.72,15,4,19,0.00
2013-7-16,81,70,58,58,53,45,84,57,36,29.95,29.70,10,2,15,0.00
2013-7-17,78,67,59,55,52,50,81,61,39,30.09,29.95,8,2,11,0.02
2013-7-18,82,67,53,57,51,40,88,62,23,30.12,29.99,14,3,18,0.02
2013-7-19,83,68,53,58,54,47,80,62,40,30.06,29.92,13,4,19,0.00
2013-7-20,80,66,55,58,53,-100,86,67,41,30.01,29.86,15,4,20,0.00
2013-7-21,83,68,53,58,53,49,87,61,33,29.91,29.80,13,4,17,0.00
2013-7-22,84,69,55,57,52,43,90,60,24,29.96,29.85,14,4,18,0.00
2013-7-23,90,72,54,58,53,48,80,54,26,29.96,29.85,13,3,16,0.00
2013-7-24,90,75,58,55,50,41,72,45,18,29.96,29.88,11,3,16,0.00
2013-7-25,90,74,59,54,48,36,72,45,15,29.99,29.91,13,4,19,0.00
2013-7-26,90,74,57,54,49,38,74,45,21,30.07,29.96,14,5,18,0.00
2013-7-27,80,68,54,51,45,40,70,45,25,30.10,29.92,16,4,16,0.00
2013-7-28,75,63,49,52,48,45,86,62,37,29.99,29.88,11,3,15,0.00
2013-7-29,77,64,51,54,50,47,86,63,35,29.96,29.87,9,3,14,0.00
2013-7-30,81,67,52,57,52,48,87,62,37,30.07,29.96,11,2,14,0.00
2013-7-31,77,65,57,58,55,53,87,71,48,30.04,29.95,7,1,10,0.00
2013-8-1,64,61,57,56,54,52,89,78,70,30.06,30.00,7,2,11,0.02
2013-8-2,73,63,57,55,52,50,87,69,46,30.08,30.01,10,2,14,0.04
2013-8-3,81,67,52,56,53,49,89,64,37,30.03,29.90,15,4,17,0.01
2013-8-4,88,72,57,59,55,50,87,59,27,29.95,29.82,10,2,17,0.00
2013-8-5,89,74,59,60,56,49,86,56,27,29.93,29.82,10,2,12,0.00
2013-8-6,91,75,60,57,50,36,81,48,15,29.92,29.82,9,2,16,0.00
2013-8-7,79,67,58,55,52,50,76,59,40,29.97,29.87,10,2,14,0.00
2013-8-8,81,67,55,60,54,51,86,67,41,29.99,29.83,10,3,17,0.00
2013-8-9,82,72,64,61,57,53,81,60,37,29.87,29.77,12,3,17,0.00
2013-8-10,78,68,60,63,57,55,86,71,48,29.98,29.85,7,2,15,0.01
2013-8-11,75,64,59,57,55,53,86,74,52,30.01,29.91,7,1,11,0.01
2013-8-12,73,64,58,58,55,52,89,74,56,30.00,29.95,4,1,9,0.00
2013-8-13,83,67,52,56,50,-100,88,61,29,30.03,29.86,10,1,15,0.00
2013-8-14,85,68,58,58,51,-100,87,62,25,29.91,29.85,6,1,12,0.00
2013-8-15,78,66,63,64,47,-100,76,65,52,29.91,29.87,4,1,10,0.00
2013-8-16,82,70,65,65,59,-100,90,72,47,29.98,29.90,7,1,11,0.02
2013-8-17,83,69,57,58,54,-100,89,63,39,30.03,29.95,8,1,12,0.01
2013-8-18,83,70,57,58,55,49,89,64,31,30.06,29.96,10,2,13,0.00
2013-8-19,84,68,58,58,45,-100,85,59,31,30.05,29.94,13,4,15,0.00
2013-8-20,81,68,58,54,48,-100,80,54,27,30.04,29.90,15,6,21,0.00
2013-8-21,88,70,53,59,51,47,82,53,29,29.92,29.77,11,2,15,0.00
2013-8-22,82,72,61,60,57,54,80,61,40,29.85,29.78,6,1,11,0.03
2013-8-23,75,64,58,59,56,54,87,74,51,29.88,29.80,8,2,9,0.12
2013-8-24,75,65,57,56,52,-100,88,68,43,29.85,29.77,11,1,11,0.00
2013-8-25,69,62,55,60,56,51,88,81,67,29.87,29.82,6,1,10,0.16
2013-8-26,77,65,60,59,55,46,89,73,34,29.86,29.84,14,3,18,0.03